Wind_Speed
27 27 28 28 29 30 30 32 33 34 35 36 36 38 38 39 39 39 41 43 45 47 48 50 52 51 50 51 52 54 55 55 55 55 56 58 60 61 62 63 63 62 61 61 62 62 63 64 66 67 68 69 71 73 74 74 74 75 77 78 78 80 84 88 90 91 92 92 92 92 92 93 93 93 92 92 92 92 92 93 93 94 95 95 96 96
27 27 27 28 28 29 31 32 33 35 36 37 38 39 40 41 42 41 42 44 46 48 49 50 53 51 51 52 52 54 55 54 55 56 58 60 61 62 63 63 62 61 62 63 63 62 63 64 65 67 68 69 71 71 71 71 72 75 77 79 82 85 89 91 92 92 92 93 94 94 94 95 95 95 94 94 94 95 95 96 97 98 99 100 100 101
27 28 28 28 29 31 33 35 37 38 39 39 41 43 43 43 46 45 43 45 48 49 49 51 53 51 50 52 52 54 55 55 57 58 60 61 62 63 63 63 62 63 65 65 64 64 64 65 66 67 67 68 68 69 69 71 74 78 82 85 87 89 90 91 91 91 92 93 94 95 96 97 97 97 98 98 98 98 99 101 102 103 104 104 105 105
29 30 30 31 33 35 37 39 41 41 41 41 43 46 46 45 48 48 47 48 50 51 51 53 54 52 51 52 52 55 56 57 59 60 61 62 62 62 62 63 64 65 66 65 65 65 64 65 66 66 66 67 69 71 73 78 82 86 88 88 88 88 91 92 92 92 94 95 96 97 98 99 100 101 102 102 103 104 104 105 106 106 107 108 109 109
33 34 35 36 38 40 41 42 44 45 43 42 44 46 46 46 48 49 50 51 51 51 53 54 56 55 53 52 53 55 56 57 59 60 61 61 61 62 62 63 64 65 65 64 64 64 64 65 65 67 69 71 72 76 82 87 90 90 89 87 86 87 91 94 94 95 96 97 98 99 100 101 103 105 106 106 107 107 107 108 109 109 110 111 110 110
37 38 39 40 41 42 43 44 45 47 46 44 44 46 46 47 49 50 52 53 53 52 54 55 58 58 54 53 55 55 56 58 60 61 62 62 63 63 64 64 64 64 64 64 63 62 63 65 67 70 73 74 77 84 90 92 92 90 88 87 87 89 92 94 95 97 99 99 100 102 104 105 107 108 108 108 109 110 111 111 111 109 106 104 103 101
40 41 41 42 42 44 45 46 47 48 48 46 47 47 48 50 51 52 54 54 53 55 56 53 57 60 57 54 54 55 58 60 61 62 63 64 65 66 66 66 65 65 65 64 63 62 63 66 70 74 76 79 84 88 91 92 94 93 91 89 90 91 93 95 97 99 100 101 103 104 106 107 108 109 110 111 112 113 112 108 104 98 94 91 90 89
41 42 42 43 44 45 47 47 48 49 49 49 50 51 51 52 54 55 55 54 53 56 56 51 54 60 60 56 54 56 59 61 62 63 65 66 67 68 68 68 67 67 66 64 61 62 65 69 73 77 80 84 87 89 90 91 93 96 95 93 93 94 95 97 98 100 101 102 103 105 106 107 109 111 113 113 111 107 101 96 90 86 83 81 80 79
43 43 44 45 46 48 48 49 50 51 52 53 54 55 55 56 57 57 57 54 54 58 56 51 54 59 61 59 56 57 60 61 63 65 67 68 68 69 69 69 69 69 66 63 62 65 69 72 76 80 83 86 89 90 91 91 94 99 99 97 96 96 97 98 99 101 102 103 105 107 109 110 110 109 107 103 98 92 88 83 80 77 75 73 72 72
44 45 45 47 49 50 51 51 53 53 55 56 57 58 58 58 59 58 58 56 56 60 56 53 55 58 60 58 55 59 61 61 64 66 68 69 69 69 70 70 70 68 67 65 66 68 71 75 78 81 84 87 90 91 91 93 99 103 102 100 99 99 99 100 102 104 106 108 109 109 107 104 101 97 93 88 84 80 77 75 72 70 68 66 65 65
46 47 48 50 52 54 54 54 55 56 57 58 58 60 60 59 59 59 59 57 58 59 56 55 56 58 60 58 56 60 61 62 65 66 68 68 69 70 70 71 71 70 68 68 69 71 74 78 80 83 86 89 90 91 93 98 103 104 102 101 100 101 103 105 107 108 108 107 104 100 96 92 88 85 82 79 75 71 69 67 65 63 61 60 59 59
48 50 51 53 54 56 56 55 56 58 58 58 60 61 63 62 61 60 58 57 59 59 57 56 56 57 61 60 59 62 62 64 65 66 68 68 69 71 72 72 70 68 67 69 72 75 78 80 82 85 87 89 90 93 97 101 103 102 101 102 104 105 106 105 104 102 99 96 92 89 85 82 79 76 74 71 67 64 62 59 57 56 55 53 52 52
49 51 52 54 56 57 58 57 57 58 58 60 61 62 64 65 64 63 60 59 61 62 60 58 57 58 60 60 63 65 65 65 66 67 68 68 70 72 70 67 64 65 68 72 76 78 79 81 83 85 87 90 94 97 99 100 101 102 104 106 106 103 100 97 94 91 89 86 84 81 78 75 72 69 67 64 61 58 55 52 50 48 45 44 43 43
50 52 53 55 57 57 59 59 60 60 60 61 62 62 63 62 63 64 63 62 64 66 66 60 59 61 61 62 65 66 66 67 67 67 68 69 70 68 64 62 63 67 72 75 77 78 80 82 85 88 92 95 97 97 98 100 102 105 104 102 98 93 91 88 86 84 82 80 77 74 71 68 65 62 60 57 55 51 48 44 41 37 35 34 34 34
52 54 55 56 58 59 59 61 62 63 63 63 62 62 61 59 60 63 64 64 66 69 69 63 62 64 64 66 68 67 67 68 67 68 69 68 64 61 61 64 67 70 73 75 76 79 82 86 90 93 95 96 97 98 100 102 102 99 95 90 87 86 84 83 81 79 77 74 71 68 65 62 59 57 55 52 48 44 39 35 31 29 29 30 30 31
53 54 57 58 59 60 60 61 63 64 64 64 62 61 61 59 59 61 64 64 65 70 71 66 64 66 67 70 70 68 69 69 69 70 67 61 58 61 64 67 70 73 76 79 81 84 87 90 93 94 95 97 98 99 99 96 92 89 86 83 82 82 81 79 77 74 72 69 66 63 59 57 55 52 50 45 39 34 30 27 27 27 28 29 31 32
55 54 57 59 59 61 61 61 63 64 64 64 63 61 61 60 60 61 64 64 63 69 72 68 67 68 70 72 71 70 71 70 70 70 64 58 59 62 66 69 75 80 82 85 87 89 91 93 94 95 96 96 95 93 90 86 84 82 81 80 79 78 76 74 72 69 66 64 61 58 55 53 50 46 42 36 30 26 25 26 26 27 28 29 31 31
59 56 57 60 60 61 62 62 63 64 64 64 63 62 62 62 62 62 64 65 65 70 73 71 69 71 72 73 72 71 70 71 73 69 62 60 63 68 73 79 83 85 87 89 91 92 93 93 94 93 92 90 88 86 84 82 81 80 79 77 75 73 71 69 67 64 62 60 57 53 51 49 44 38 33 27 24 24 25 26 26 27 28 29 29 28
62 60 59 61 62 62 63 63 64 64 64 64 63 63 63 64 64 64 64 66 67 72 75 74 74 74 74 73 71 70 70 73 72 67 64 67 73 79 83 86 87 88 90 90 91 91 91 91 90 89 87 85 83 82 82 81 80 79 76 73 71 68 66 65 63 60 57 56 53 50 47 43 36 29 24 22 22 24 24 25 25 26 27 26 26 26
65 65 64 63 63 63 63 65 65 65 66 66 65 65 64 63 63 65 65 64 66 72 75 77 79 79 76 73 71 71 74 75 72 71 74 79 82 85 87 88 89 90 90 89 88 88 87 87 86 84 83 82 81 81 81 80 79 76 73 70 67 64 62 61 58 55 53 51 49 47 42 34 27 22 20 21 23 23 23 23 23 24 24 23 24 25
65 68 68 66 64 64 65 67 67 67 68 69 68 66 64 63 63 66 67 63 65 71 73 76 82 82 75 73 73 75 78 78 77 80 83 84 86 87 89 90 90 90 89 88 87 86 84 83 81 80 80 81 81 81 80 78 76 73 70 67 64 60 58 56 54 51 48 47 45 41 33 25 21 20 20 22 23 22 22 21 21 20 20 21 22 22
66 69 71 70 67 65 66 69 70 70 71 70 69 67 65 65 65 68 71 68 67 71 70 73 82 82 75 74 77 78 80 81 82 84 85 86 87 88 88 88 88 88 88 87 86 84 81 80 78 78 79 80 80 79 78 75 72 69 66 63 60 57 54 52 49 46 45 44 40 32 24 20 19 20 22 22 22 20 19 19 18 18 17 18 19 20
66 70 72 72 70 67 67 70 71 72 72 70 68 68 67 66 66 68 71 71 71 72 70 73 81 81 76 77 79 80 82 83 83 84 85 86 85 85 85 85 85 84 84 83 82 80 79 78 77 77 78 79 78 77 75 72 69 66 63 59 56 53 50 48 44 42 42 39 31 23 19 19 20 21 22 21 19 18 17 17 16 16 16 16 17 17
66 70 73 73 70 67 67 69 70 71 72 71 69 68 68 67 67 68 69 71 75 74 72 76 82 81 78 79 79 80 82 82 81 82 83 83 83 82 83 82 81 80 79 79 78 77 77 77 77 78 78 77 76 74 72 69 66 63 59 55 52 49 47 44 40 39 38 32 23 18 17 19 21 21 20 19 18 16 15 15 15 15 15 16 16 16
68 72 75 76 74 72 71 72 73 74 75 74 71 69 68 68 68 69 69 71 76 77 75 77 82 82 80 78 78 79 81 80 80 80 80 81 82 82 82 80 79 78 77 77 78 78 79 79 78 78 77 75 73 71 68 66 63 60 56 53 49 46 44 40 37 36 32 24 18 16 18 19 20 20 19 18 16 14 14 14 15 15 15 15 15 15
68 73 75 76 77 77 76 76 77 79 79 78 75 71 70 69 69 70 70 72 77 82 80 78 81 84 82 79 79 81 82 82 81 80 80 81 81 81 80 78 77 77 78 78 80 81 81 80 78 76 75 73 70 67 65 62 59 56 53 50 46 44 40 36 34 32 25 18 15 16 18 19 19 18 17 16 15 14 13 14 14 15 14 14 14 14
67 72 74 75 75 76 76 75 77 79 80 80 79 75 72 71 72 72 72 74 79 84 84 80 81 86 85 82 83 84 83 83 83 82 81 81 80 79 77 76 76 77 78 80 81 82 81 79 77 75 73 70 67 64 61 58 55 52 49 46 43 40 36 33 30 26 19 14 14 15 17 18 17 17 16 15 14 14 13 13 14 14 14 14 13 14
66 70 74 75 75 76 76 75 76 78 80 80 80 79 75 74 75 75 75 76 79 83 86 84 83 86 87 86 86 86 84 84 83 82 81 79 78 77 76 76 76 78 80 81 82 83 82 79 77 74 72 68 65 60 56 53 50 47 45 42 39 36 32 30 26 19 14 13 14 15 16 17 16 15 14 13 13 14 14 13 13 14 14 13 13 13
65 69 73 75 76 77 77 76 78 79 80 81 81 80 78 77 78 78 77 78 80 82 85 86 85 86 87 87 87 85 84 83 81 80 78 77 76 76 76 77 79 81 82 82 82 82 82 79 76 73 70 66 61 56 51 48 45 42 40 38 34 31 29 25 19 14 12 12 13 14 15 16 15 14 13 12 13 13 13 13 13 13 13 13 13 12
65 68 72 75 76 78 78 77 79 81 82 82 81 81 81 80 80 80 79 79 83 84 85 87 88 87 86 87 87 85 83 81 79 77 76 75 76 77 78 80 82 84 84 83 81 80 79 76 72 69 66 62 57 52 47 44 41 38 36 34 30 28 25 20 14 11 11 11 12 13 13 14 14 13 12 12 12 13 13 13 13 13 13 13 12 12
65 68 71 74 76 78 79 79 80 82 84 84 83 82 83 83 82 82 81 81 85 88 89 89 90 90 89 89 88 84 81 80 78 76 76 77 78 79 81 84 86 85 84 83 80 78 74 71 67 64 61 59 54 48 43 40 38 35 33 30 27 24 19 14 10 9 10 11 11 12 11 12 13 13 12 12 12 12 12 12 12 12 12 12 11 11
65 68 71 74 76 79 81 80 81 83 85 85 86 85 85 86 86 84 82 82 86 90 92 93 94 93 93 91 88 84 81 80 78 77 77 79 80 82 85 87 88 86 83 81 77 74 70 66 63 61 59 56 51 45 40 38 35 33 30 27 23 19 13 9 8 8 9 10 10 10 10 11 13 13 12 12 12 12 11 11 11 11 11 11 10 10
66 68 71 74 76 79 82 82 83 85 87 88 89 89 88 88 88 87 84 85 87 90 92 94 95 94 94 91 89 87 84 81 80 78 79 81 83 85 88 89 88 85 81 77 73 69 65 62 61 59 56 53 49 43 38 35 32 30 27 24 19 13 7 6 6 7 8 9 9 9 9 10 12 12 12 11 10 11 11 11 10 10 9 9 9 8
66 69 72 75 78 80 82 83 85 87 89 90 91 91 89 89 89 89 86 87 89 90 92 94 94 94 94 91 89 89 87 84 80 78 79 82 85 88 90 88 86 82 77 72 68 64 62 60 60 58 53 48 45 40 35 32 29 27 24 21 15 8 4 4 6 7 8 8 9 9 10 11 11 12 11 9 9 10 10 10 9 8 8 8 8 8
66 69 72 76 79 81 84 86 87 88 89 91 91 91 89 88 88 89 88 87 91 92 94 96 96 95 95 93 91 90 89 86 81 78 80 83 86 90 91 87 82 76 71 68 65 62 61 60 59 56 51 45 41 37 33 29 26 23 21 17 11 5 4 5 6 7 8 9 9 10 10 11 11 11 11 9 9 9 10 9 8 8 7 7 7 7
67 69 72 76 78 81 84 87 89 89 90 91 91 91 91 90 89 91 91 91 93 95 97 98 98 97 96 95 94 93 91 88 83 80 81 84 87 90 89 84 77 71 67 66 64 62 61 60 58 55 50 45 40 35 30 27 24 21 18 12 7 4 6 7 8 9 10 10 11 11 12 12 12 12 11 11 10 10 9 8 7 8 8 7 7 6
68 70 73 76 79 82 84 86 89 90 91 92 92 91 92 92 91 92 93 94 94 95 97 100 100 99 98 97 96 95 95 93 88 84 83 86 89 91 86 79 73 69 66 65 62 61 60 58 56 52 47 42 38 33 28 24 21 18 14 8 6 6 8 9 10 11 11 12 13 13 14 13 12 11 11 10 10 10 9 7 8 8 8 7 6 5
69 71 74 77 80 83 85 87 90 93 93 93 93 91 90 90 91 92 93 93 94 96 99 101 102 101 100 98 97 96 97 97 93 89 88 89 92 92 85 76 71 68 66 64 61 58 56 55 52 48 43 39 35 30 26 22 19 15 10 7 7 8 9 10 11 12 12 13 14 15 14 13 12 10 9 8 8 8 8 8 9 9 8 7 6 6
69 71 74 77 80 83 86 88 90 92 93 93 93 92 90 90 91 93 93 93 95 98 101 102 102 102 101 100 98 97 97 98 96 93 91 93 95 92 84 76 71 69 66 63 59 55 52 50 48 45 40 36 31 26 23 20 16 11 8 8 9 10 11 11 12 12 13 14 15 14 14 14 12 10 6 5 5 6 9 10 11 10 9 8 9 11
68 70 73 76 79 83 86 88 89 91 92 92 93 94 94 93 92 93 95 99 100 101 102 103 103 103 102 100 99 98 95 95 96 93 92 94 95 91 83 77 73 70 66 62 57 52 49 47 45 41 37 32 28 24 20 17 13 10 9 9 10 11 11 11 12 13 14 15 14 14 15 15 13 9 4 2 6 9 11 11 11 10 10 11 13 15
68 70 72 75 78 82 85 88 90 91 91 92 92 94 96 96 96 95 97 101 103 102 102 103 104 104 103 101 100 99 96 94 93 93 92 94 95 91 82 75 71 67 64 60 55 51 48 45 42 38 35 31 26 22 19 15 12 11 11 11 12 12 11 12 13 14 14 14 14 14 15 14 11 7 3 5 8 10 11 11 10 11 13 15 16 16
69 71 73 76 78 81 85 88 91 92 92 92 93 94 95 97 97 97 97 98 100 102 103 104 104 105 104 103 101 100 98 96 94 93 92 93 95 91 81 73 69 65 61 57 53 49 47 43 39 36 33 29 25 20 17 14 13 12 13 13 13 12 12 13 14 14 14 13 13 14 13 12 9 6 6 7 9 11 11 11 12 14 17 17 16 15
70 72 74 77 79 82 85 88 91 92 93 94 94 94 94 95 96 97 97 97 99 101 103 104 105 105 106 105 103 102 101 99 96 94 92 92 94 90 80 72 68 64 60 56 52 49 46 43 39 36 32 27 23 19 16 15 14 14 14 14 14 13 13 13 14 14 14 13 12 12 12 10 8 7 8 9 10 11 12 14 16 18 18 17 15 14
70 72 75 78 80 84 86 87 89 91 92 93 93 94 93 93 94 95 97 98 99 101 104 105 106 106 106 106 105 104 103 101 98 96 93 92 94 90 80 71 67 63 59 55 51 48 45 42 38 34 30 25 21 18 17 16 16 16 16 15 15 14 14 14 14 13 13 12 11 11 10 9 6 6 8 10 11 13 16 18 19 18 17 16 14 12
70 72 75 78 81 84 86 88 89 90 91 91 92 93 93 93 94 95 96 98 100 102 103 105 106 107 107 107 107 106 105 103 100 97 94 92 93 90 79 71 67 63 58 54 50 46 43 40 36 33 28 24 21 20 19 18 18 17 17 17 16 16 15 14 14 13 13 12 10 10 9 7 5 5 7 10 13 16 19 20 19 17 16 15 13 10
69 71 73 76 79 81 84 87 89 90 91 92 92 93 93 94 95 96 97 98 100 101 103 105 107 108 108 107 107 107 106 105 102 98 94 92 92 89 79 69 65 61 56 51 47 42 39 37 34 31 28 25 23 21 20 20 19 19 19 18 18 16 15 14 13 12 12 11 9 8 8 6 3 3 7 11 16 19 20 19 17 16 15 13 10 8
68 70 72 75 78 80 83 86 88 90 91 92 92 93 94 95 96 97 98 98 100 102 103 104 106 108 108 108 108 107 107 106 103 99 95 92 91 88 78 68 63 59 53 48 44 40 37 34 31 30 28 25 24 22 21 20 20 19 19 19 18 17 15 14 13 11 10 10 8 7 6 5 2 3 8 14 18 20 19 17 15 15 13 10 8 6
67 70 72 74 77 80 83 85 88 90 91 92 93 94 95 97 97 98 98 98 99 101 103 104 106 107 108 109 109 108 107 106 104 101 97 92 90 88 78 66 60 56 50 45 41 38 35 33 30 28 27 25 24 23 22 21 21 20 20 20 20 18 16 15 13 11 9 9 7 6 5 4 1 5 11 17 20 20 18 16 15 14 11 9 7 5
67 70 72 73 75 78 81 84 86 89 90 92 94 95 96 97 98 98 98 98 99 101 102 103 104 106 108 109 109 109 108 107 105 102 98 92 89 87 78 66 58 53 47 42 39 37 34 33 31 29 28 27 26 25 24 23 22 22 22 22 22 20 17 15 14 11 9 7 6 4 4 3 2 7 14 19 21 19 18 16 14 12 10 8 6 4
67 69 71 73 75 77 80 83 86 89 91 93 94 96 97 97 98 98 98 99 99 100 102 103 103 105 107 108 109 109 108 108 106 103 99 93 89 86 79 66 55 50 45 40 38 37 35 33 33 31 30 30 28 27 27 26 25 25 25 24 24 22 18 15 13 11 8 6 5 3 3 2 3 10 16 21 21 19 18 16 14 11 9 7 6 5
67 69 71 74 76 78 80 83 87 89 91 93 95 97 98 98 98 99 99 99 100 100 102 103 104 105 106 108 109 109 109 109 107 104 100 94 89 85 80 69 55 47 44 39 36 35 34 33 33 32 31 31 31 30 30 29 28 27 27 27 26 24 19 15 12 10 7 5 4 3 3 1 4 11 18 22 21 19 17 15 13 11 9 7 6 5
Wind_Direction
342 339 337 336 334 332 331 329 328 327 326 324 322 322 321 320 322 319 315 314 314 319 322 313 306 308 308 307 305 303 303 302 301 301 300 298 297 296 296 296 296 296 294 294 293 292 290 288 287 286 285 284 283 282 284 286 287 287 287 286 285 284 283 284 285 286 286 285 285 284 283 282 281 281 280 279 278 277 276 275 274 273 272 271 270 269
343 342 340 339 336 333 333 332 331 330 329 327 325 325 325 323 325 326 320 317 316 320 324 314 309 314 313 311 309 307 306 305 304 303 301 300 299 300 300 299 299 299 299 299 299 297 294 292 290 288 287 287 285 285 286 287 287 285 284 283 282 281 282 284 285 286 287 286 286 285 285 284 283 282 281 280 279 278 278 276 275 274 273 272 270 269
346 345 343 342 339 337 337 336 335 335 332 331 328 328 329 326 327 330 324 320 319 321 324 317 313 318 317 314 312 309 308 307 305 304 302 302 303 303 303 303 303 303 304 304 303 301 298 296 294 292 290 287 285 284 285 285 285 285 284 284 284 285 286 287 289 289 289 288 288 288 287 287 286 285 284 283 282 281 280 279 277 276 275 273 272 270
349 348 347 345 344 343 341 339 338 337 335 333 330 330 331 328 327 330 328 325 325 324 324 319 317 322 321 317 315 310 310 310 307 306 305 306 305 305 305 305 306 306 306 305 304 302 299 297 295 292 290 287 283 282 284 286 289 290 290 291 291 291 292 292 292 292 291 291 291 290 290 289 288 287 286 285 284 283 282 281 280 279 278 276 275 273
352 351 350 348 346 345 342 341 339 338 338 334 331 330 330 328 326 327 327 329 331 329 324 320 320 325 325 319 315 312 312 311 308 308 308 308 307 307 308 307 307 307 306 304 303 302 299 297 294 292 290 287 284 284 288 291 294 295 296 296 294 293 292 293 293 293 293 293 292 291 290 289 289 288 287 287 286 285 284 283 282 281 280 278 276 274
354 352 351 349 346 345 342 342 340 339 340 336 332 331 330 329 329 328 328 330 334 333 328 323 320 325 329 321 316 316 314 311 310 310 309 308 309 309 309 309 309 308 307 306 305 303 299 295 292 291 290 288 287 290 294 296 298 300 299 297 295 293 293 293 293 293 293 292 291 290 290 289 289 288 288 287 286 286 285 284 283 281 279 277 275 273
354 352 351 349 347 345 343 343 342 340 340 338 336 334 332 332 332 331 330 331 334 334 332 326 317 322 330 325 319 319 315 312 311 310 309 309 310 311 312 311 310 309 309 308 307 302 296 291 290 290 290 290 292 295 297 298 300 301 300 298 296 295 294 293 292 292 292 291 291 291 290 290 289 289 288 287 287 286 285 284 282 280 277 275 273 270
354 353 351 350 348 346 345 345 344 342 341 340 339 337 336 335 335 334 333 332 333 334 334 327 317 321 328 327 322 320 315 313 312 310 310 311 312 312 313 312 311 310 310 309 304 298 292 290 291 292 292 293 295 296 297 297 297 299 299 298 296 295 294 293 292 292 292 291 291 290 290 289 289 289 288 288 287 286 285 283 281 279 276 273 271 269
354 354 352 351 349 348 348 347 345 344 343 342 340 339 338 337 337 335 335 335 334 335 335 328 321 323 327 327 323 318 316 314 313 312 312 312 312 312 312 311 310 310 310 307 302 297 294 294 294 295 295 295 296 296 296 294 294 296 298 298 297 296 295 294 293 292 292 291 291 290 290 290 289 289 288 288 287 286 285 283 281 279 276 273 271 268
355 355 353 352 351 350 350 349 347 345 344 342 341 340 340 338 338 337 336 336 335 336 335 329 326 323 325 328 322 317 317 315 313 312 312 312 312 312 310 309 309 308 307 304 301 298 297 297 297 297 296 296 296 296 295 293 294 296 298 298 298 297 296 296 294 294 293 292 292 292 291 291 290 290 289 288 287 286 285 283 281 279 276 273 269 267
356 356 354 353 352 351 351 350 347 346 345 342 340 340 340 339 338 338 338 336 336 338 335 329 329 324 323 327 322 318 318 315 314 313 312 313 312 310 309 309 308 307 306 304 301 300 300 300 299 298 297 296 295 294 293 293 295 297 298 298 298 298 297 296 295 295 294 294 294 294 293 293 292 291 290 289 287 286 284 282 280 278 275 272 268 265
356 355 354 353 352 350 350 350 348 347 345 343 341 339 338 339 339 339 339 337 337 339 335 332 332 325 323 326 322 320 320 317 316 315 314 313 312 310 309 308 308 308 307 305 303 302 302 301 299 297 295 293 292 292 293 294 296 297 298 299 299 298 298 297 296 296 295 296 296 296 295 294 293 292 291 289 288 286 283 281 279 276 274 271 267 264
356 354 353 351 351 350 349 349 348 347 346 344 342 339 338 338 339 340 342 339 339 340 338 334 332 328 326 325 322 322 321 319 318 317 316 314 312 311 309 308 308 306 304 302 301 301 301 300 297 294 292 292 292 293 295 296 298 299 299 299 299 299 298 298 297 297 298 298 298 297 296 295 294 293 291 290 288 286 283 280 277 274 271 268 264 261
355 353 352 351 351 351 350 349 348 348 347 346 344 341 339 337 336 339 341 340 339 341 342 338 332 329 328 326 324 324 322 321 320 318 316 314 312 312 310 308 305 301 300 300 301 301 300 298 294 292 293 294 296 297 298 299 299 299 299 300 300 300 300 300 300 300 299 299 298 297 296 296 294 293 291 289 287 285 282 278 274 269 265 262 260 259
358 354 353 353 352 352 352 350 349 349 348 348 346 343 340 336 333 335 338 338 336 338 344 342 333 329 328 328 328 326 324 322 320 318 316 315 314 311 308 306 302 300 301 302 301 299 296 294 294 295 297 299 300 300 300 300 300 300 301 302 302 302 301 301 301 301 300 299 298 298 297 296 294 292 290 289 286 282 277 272 267 263 261 261 261 260
1 357 354 354 353 352 353 351 350 350 349 348 347 344 341 338 334 335 339 340 333 334 342 343 335 331 328 329 330 327 324 322 319 319 318 314 311 307 305 304 303 303 302 299 297 296 296 297 299 300 301 301 301 300 301 301 302 303 304 304 304 303 303 302 302 301 300 300 299 299 298 296 294 292 290 287 283 276 270 265 263 263 264 264 262 261
3 0 355 354 353 351 352 352 351 351 350 349 348 345 343 341 337 335 340 342 334 332 340 342 336 332 329 330 331 327 324 322 320 319 317 312 308 306 304 304 303 302 301 300 301 301 302 303 303 302 302 302 302 302 303 304 305 305 305 305 305 304 303 303 302 301 301 301 301 300 298 296 295 292 289 284 276 268 265 265 267 268 267 265 262 260
1 2 357 354 353 352 352 353 353 352 350 349 348 345 344 344 341 337 337 340 335 332 338 341 336 332 331 331 330 327 324 321 320 318 315 311 309 307 307 306 306 305 305 305 305 305 305 304 304 304 304 305 306 306 307 307 307 307 307 306 305 305 304 303 303 303 303 302 302 300 299 297 295 290 284 277 269 266 267 270 272 270 268 265 262 259
359 0 358 355 354 353 353 354 354 354 352 350 348 347 345 345 344 342 338 337 334 330 334 339 336 333 333 332 329 326 323 320 320 317 315 313 312 311 310 308 307 306 305 305 305 305 306 306 307 307 308 308 308 308 309 309 309 308 308 307 307 306 306 304 304 304 303 303 302 301 300 297 293 285 277 272 270 271 273 274 273 269 267 264 260 256
358 359 359 357 356 354 353 353 354 355 353 351 350 349 348 346 345 344 342 338 333 330 331 335 336 335 334 332 327 324 323 322 320 319 317 316 314 312 310 308 307 307 307 308 308 308 309 309 309 310 310 310 309 309 309 309 309 309 309 309 309 308 306 305 304 304 304 302 302 302 300 295 287 279 274 274 276 277 278 277 272 267 264 260 255 253
358 358 358 358 357 355 353 353 355 356 354 353 352 350 349 348 346 345 346 343 335 333 332 330 333 337 335 330 327 325 324 323 321 320 319 316 313 312 311 310 311 311 312 312 311 311 311 311 311 311 311 310 309 310 310 310 310 310 310 310 310 309 307 305 305 305 303 302 302 301 297 289 281 278 279 281 282 282 279 275 270 264 259 255 253 253
358 358 358 358 358 356 355 354 355 356 355 353 353 352 350 349 347 344 346 346 339 338 335 328 330 337 335 329 328 326 324 322 321 320 317 315 313 313 313 313 314 314 314 313 313 312 312 312 312 312 311 310 310 311 311 311 312 311 311 311 310 310 308 306 306 305 303 303 303 298 290 283 281 282 285 286 285 283 277 271 267 262 257 255 256 255
358 357 357 358 358 358 355 354 354 355 355 354 354 353 352 351 348 345 344 344 340 339 336 330 332 337 335 330 329 326 323 322 320 318 316 315 315 315 315 315 315 315 314 313 313 313 313 313 313 312 311 311 311 312 312 313 313 312 312 312 311 311 309 308 308 305 304 303 300 292 284 283 284 286 288 287 285 280 273 267 264 263 261 260 260 257
359 358 357 356 358 357 355 354 354 355 355 356 356 355 353 352 350 348 345 342 341 340 336 332 335 337 334 331 329 324 322 320 318 317 317 317 318 318 318 317 316 316 315 314 314 314 314 314 314 313 313 313 313 314 314 314 313 313 313 313 313 312 310 309 308 305 304 302 294 286 285 286 287 289 290 288 284 276 268 265 263 263 264 263 261 257
0 360 358 356 356 357 356 355 356 356 357 357 357 356 354 352 350 350 348 344 343 343 338 334 335 337 335 331 327 323 322 322 321 321 322 321 321 320 319 319 318 318 317 317 316 316 316 316 316 316 315 315 315 315 315 315 314 314 314 314 314 312 311 310 308 305 303 297 287 285 289 289 290 291 290 286 281 272 264 261 260 260 260 259 258 256
1 1 360 358 357 357 357 357 356 357 357 357 357 357 355 353 350 350 348 345 344 345 343 338 334 336 337 333 329 327 327 327 327 327 326 324 323 322 321 321 321 320 319 319 318 318 319 319 318 318 317 317 316 316 316 315 314 315 315 315 314 313 312 311 308 305 299 289 285 289 291 291 290 289 286 283 279 273 264 259 258 259 259 259 258 258
360 1 2 360 359 358 358 357 356 356 357 357 357 357 357 354 352 350 349 346 344 345 346 343 336 335 337 335 332 332 331 330 331 330 328 326 325 324 323 323 323 322 321 321 320 320 320 320 320 319 319 319 318 317 317 315 315 315 315 314 314 313 312 311 307 302 293 285 289 293 292 291 289 285 283 283 283 278 269 262 258 257 259 260 261 260
358 0 2 1 360 359 358 357 356 356 356 356 356 356 357 357 355 353 350 347 344 343 345 345 339 336 337 336 334 334 334 333 333 331 329 327 326 325 325 325 325 324 324 323 322 322 322 322 322 322 322 322 320 319 317 316 315 316 315 314 314 314 313 311 305 296 286 287 293 295 293 291 287 283 283 286 286 282 275 267 261 257 258 260 261 263
358 359 1 1 0 360 359 357 356 356 357 357 357 356 356 357 357 355 352 348 346 343 342 343 341 339 338 337 337 337 336 335 333 332 330 328 327 328 328 328 328 327 327 326 325 324 324 325 325 325 325 324 322 320 318 317 317 317 316 315 315 315 314 310 301 288 286 293 296 295 293 289 285 283 285 288 287 284 278 271 264 259 258 258 260 263
358 358 359 1 1 0 360 358 357 357 357 357 357 356 356 357 357 356 354 350 348 347 344 343 343 342 340 339 339 339 337 336 334 333 332 330 331 331 332 331 331 330 329 328 327 326 325 326 327 327 327 326 324 323 321 319 319 319 318 318 317 317 315 307 293 285 291 297 297 295 292 289 285 285 288 290 289 286 281 274 267 259 255 256 258 260
358 358 358 360 0 360 360 359 358 357 358 358 357 356 356 357 358 358 356 351 349 349 348 346 345 345 343 342 342 341 338 337 338 336 335 334 335 335 334 334 333 332 331 329 328 328 328 329 330 330 330 329 328 326 324 322 322 322 321 320 319 319 314 301 286 289 297 299 296 293 291 288 286 287 289 291 290 286 282 276 268 260 254 253 254 255
358 358 358 359 360 360 359 359 359 358 358 357 356 357 357 358 359 359 357 352 349 349 349 348 348 347 346 345 344 342 341 341 341 340 338 337 338 337 336 336 335 333 332 330 330 330 331 332 333 333 333 333 331 330 328 326 325 324 323 322 322 321 312 293 288 298 302 300 296 293 290 287 287 289 290 291 289 285 282 277 270 261 253 249 250 251
358 358 358 358 359 359 359 359 359 358 357 358 358 358 359 0 0 360 358 354 352 350 348 349 349 348 348 346 345 345 344 344 344 342 339 339 339 339 338 337 336 335 333 333 333 333 333 333 334 335 336 335 333 332 331 329 327 326 325 326 328 325 310 293 302 310 310 306 302 297 293 290 290 291 291 289 286 282 279 276 272 264 254 246 244 244
358 358 358 358 359 360 359 359 359 358 359 360 360 359 0 1 0 0 359 355 354 353 350 350 350 349 349 348 347 346 347 347 347 344 341 340 341 340 340 338 337 336 336 335 335 335 335 334 334 336 337 336 334 334 334 332 330 330 329 331 335 335 322 317 325 329 324 317 311 306 302 298 296 295 293 287 278 274 273 273 270 265 254 241 236 236
358 359 358 358 359 360 359 359 360 1 1 1 1 0 0 360 359 0 0 357 354 354 352 352 352 351 351 351 350 349 349 349 349 346 343 343 343 342 341 340 339 338 338 337 337 337 336 335 335 336 338 339 338 337 337 336 334 333 333 336 344 350 348 349 349 345 336 327 322 316 309 305 302 299 293 284 272 264 263 265 263 257 248 235 227 227
358 359 359 358 359 359 360 0 1 2 1 0 1 1 0 0 359 359 0 358 355 353 353 352 353 353 353 353 352 351 351 351 351 349 346 346 346 344 343 342 341 341 340 339 339 338 336 336 337 338 339 341 341 341 341 340 338 338 340 347 1 9 4 5 2 352 342 335 329 322 315 311 308 301 291 280 268 259 255 251 246 242 236 228 221 216
358 359 359 359 359 359 0 1 1 1 0 0 1 1 1 2 1 359 358 358 356 354 353 353 354 354 354 354 353 353 352 353 353 351 349 349 348 347 346 345 343 343 342 341 341 339 337 337 338 339 340 341 343 344 346 345 343 345 352 7 24 19 14 13 6 355 346 339 332 326 323 320 314 304 291 276 262 252 244 230 223 226 223 217 209 201
358 359 0 0 360 360 0 1 0 1 2 2 2 2 2 3 3 1 0 359 357 356 356 355 355 355 355 355 354 354 353 353 354 353 352 351 350 349 349 347 346 344 343 343 343 341 338 338 339 341 343 345 347 348 350 349 350 357 13 33 31 22 20 16 5 355 348 341 335 333 333 332 326 314 295 274 256 240 222 207 204 207 205 199 189 176
358 359 0 1 1 0 1 1 1 2 2 2 2 3 3 2 2 3 1 0 360 359 358 357 357 356 356 355 355 354 354 354 354 354 353 352 352 351 350 349 348 346 346 346 345 344 341 341 342 345 348 350 352 354 353 354 1 18 38 41 29 25 24 15 3 357 351 345 341 344 347 347 340 330 308 269 231 204 192 190 190 189 187 179 166 157
358 359 360 1 2 1 1 2 2 2 2 2 3 3 3 3 2 1 0 1 2 1 359 358 358 357 357 357 356 356 355 354 354 354 354 353 352 352 351 350 349 349 348 348 348 347 346 345 347 350 354 357 359 1 1 5 20 39 46 36 28 27 23 11 3 1 356 351 352 358 359 355 349 343 333 191 172 171 173 175 175 174 169 160 154 149
358 359 360 1 2 2 1 2 2 2 2 3 3 3 3 3 3 2 1 2 2 1 360 359 359 359 359 358 357 357 357 356 355 354 354 353 353 353 353 352 351 351 351 352 351 351 351 352 353 357 1 4 7 9 12 22 37 44 40 31 28 27 19 8 5 5 0 358 3 7 4 0 359 5 48 127 145 152 156 158 159 158 154 149 146 144
358 359 359 0 1 2 2 1 2 3 3 3 3 3 2 3 4 4 4 2 1 1 1 0 360 360 360 360 359 358 359 358 357 356 355 354 354 355 354 353 353 354 355 356 356 355 356 358 1 4 7 10 13 17 24 36 41 37 32 28 26 25 16 9 9 8 3 4 10 11 8 7 14 39 81 109 126 134 140 144 146 145 144 142 141 142
359 359 359 360 1 2 2 2 2 3 3 3 3 3 3 4 4 4 4 3 1 1 1 1 1 0 0 1 0 360 359 359 359 357 356 356 356 356 356 355 356 357 359 360 360 360 1 4 6 9 13 17 22 27 33 37 36 30 26 25 23 20 14 11 11 8 5 8 13 13 10 13 27 60 90 107 117 124 131 136 139 139 139 140 142 143
359 359 359 360 1 2 4 4 3 3 3 3 4 4 4 4 4 4 4 4 3 1 1 2 1 1 1 2 1 1 0 0 360 359 358 357 357 357 357 357 358 360 1 2 3 3 5 8 11 15 21 26 29 31 32 31 28 25 22 21 20 16 11 11 10 6 5 9 11 12 12 12 28 65 94 109 118 124 131 135 137 138 140 142 144 144
360 360 360 0 2 3 4 4 4 3 4 4 4 5 4 4 4 4 4 4 4 3 2 2 2 2 2 2 2 1 1 1 1 0 359 358 358 359 359 358 359 1 3 4 5 6 8 12 16 21 26 29 30 28 26 24 21 18 16 16 17 13 8 7 5 2 4 8 8 10 13 12 25 70 100 116 124 130 134 137 139 141 144 145 144 142
360 360 360 0 1 2 4 4 4 4 4 4 4 4 4 4 4 4 4 4 4 4 3 2 2 2 2 2 2 2 1 1 2 1 360 359 360 0 1 0 0 2 4 6 9 11 13 16 20 23 26 27 26 24 21 18 15 12 9 10 12 11 6 2 1 359 1 4 5 8 13 16 32 93 116 128 133 135 137 139 141 144 145 144 143 141
359 359 360 360 0 1 3 4 4 4 3 3 4 4 4 4 4 4 4 4 4 4 3 3 3 3 2 3 3 3 2 2 2 2 1 1 1 2 2 1 1 4 6 9 12 15 18 19 21 21 22 22 20 18 16 13 9 7 3 3 6 8 4 359 357 356 357 359 1 4 9 14 49 127 136 139 140 140 141 142 144 146 145 142 142 138
358 358 359 359 360 0 1 2 4 4 4 3 3 4 4 4 4 4 5 5 5 4 4 3 3 3 3 3 3 3 3 2 2 2 2 2 2 3 3 2 2 5 8 11 14 17 18 19 20 19 18 16 15 13 11 8 5 1 358 357 360 3 1 356 353 352 352 352 355 358 1 10 86 147 147 146 146 145 145 147 149 147 144 140 135 126
357 357 358 358 359 359 0 1 3 4 4 3 3 3 4 4 4 4 5 5 5 5 5 4 4 4 3 3 4 4 3 3 3 3 3 3 3 4 4 2 3 6 9 11 13 15 16 16 16 15 14 12 10 8 5 3 0 357 354 352 353 357 358 353 349 348 344 344 349 348 348 4 131 156 154 152 151 150 150 151 150 144 139 132 120 113
356 356 356 357 358 359 360 1 2 3 4 4 3 3 4 4 4 4 5 5 5 5 6 6 5 5 4 4 4 4 4 4 3 3 3 3 4 5 5 4 3 5 9 10 11 11 11 11 11 10 9 7 5 3 1 358 355 352 349 346 347 351 353 348 344 342 337 337 341 335 332 349 158 163 159 156 155 155 153 151 148 144 139 129 117 110
355 355 355 356 358 359 359 0 1 2 3 4 3 3 4 4 4 4 4 4 5 5 5 6 6 6 5 5 4 4 4 4 4 4 4 4 4 5 6 5 3 3 6 9 10 9 8 7 7 6 4 2 0 358 356 353 350 347 344 342 343 347 349 343 338 336 334 333 332 325 323 293 172 166 162 159 159 157 155 152 150 149 144 133 122 104
Height
5770 5767 5764 5761 5758 5754 5751 5748 5744 5740 5737 5733 5729 5725 5722 5717 5715 5711 5706 5701 5696 5692 5688 5681 5674 5672 5670 5666 5660 5654 5649 5644 5639 5635 5630 5624 5618 5614 5609 5603 5599 5595 5590 5585 5581 5577 5573 5570 5566 5563 5560 5557 5553 5549 5545 5540 5535 5529 5524 5519 5515 5511 5506 5501 5497 5492 5489 5485 5482 5480 5478 5476 5474 5473 5471 5471 5470 5468 5467 5467 5465 5463 5463 5462 5462 5462
5768 5766 5763 5759 5756 5752 5749 5746 5742 5738 5734 5730 5726 5722 5719 5714 5710 5708 5702 5696 5691 5687 5683 5675 5667 5667 5664 5658 5653 5647 5641 5637 5633 5627 5622 5616 5610 5605 5600 5594 5590 5585 5580 5576 5572 5568 5565 5561 5557 5554 5551 5547 5543 5538 5533 5528 5523 5518 5513 5508 5504 5500 5495 5490 5484 5479 5475 5470 5466 5463 5461 5459 5457 5457 5455 5453 5453 5452 5450 5449 5448 5447 5446 5445 5445 5445
5767 5764 5761 5758 5754 5750 5747 5743 5739 5736 5731 5727 5722 5717 5714 5709 5705 5703 5698 5692 5686 5681 5678 5670 5662 5662 5658 5652 5646 5640 5634 5630 5625 5620 5614 5608 5602 5596 5590 5585 5580 5576 5571 5567 5563 5559 5556 5552 5548 5544 5540 5536 5531 5525 5520 5516 5512 5506 5501 5496 5491 5486 5481 5476 5471 5465 5459 5455 5451 5447 5444 5441 5439 5438 5437 5436 5435 5434 5432 5430 5429 5427 5427 5426 5426 5426
5765 5762 5759 5756 5752 5748 5744 5741 5736 5733 5729 5723 5718 5713 5709 5704 5698 5696 5693 5688 5681 5674 5669 5662 5656 5655 5651 5645 5640 5632 5627 5622 5616 5610 5605 5600 5594 5587 5582 5577 5572 5568 5563 5559 5555 5551 5547 5543 5538 5534 5529 5524 5519 5513 5508 5504 5499 5494 5488 5482 5476 5471 5466 5461 5456 5450 5444 5439 5435 5431 5427 5424 5421 5419 5418 5417 5416 5415 5413 5411 5410 5408 5407 5406 5405 5405
5764 5760 5757 5753 5750 5746 5742 5738 5733 5729 5726 5720 5714 5709 5705 5701 5695 5690 5686 5682 5678 5671 5663 5654 5649 5650 5646 5638 5633 5626 5620 5614 5607 5602 5596 5590 5585 5579 5574 5570 5565 5561 5556 5552 5547 5543 5538 5534 5529 5524 5518 5513 5508 5502 5497 5492 5486 5480 5474 5468 5463 5458 5452 5447 5441 5435 5430 5424 5420 5415 5411 5409 5405 5402 5400 5399 5397 5396 5394 5392 5391 5390 5388 5384 5382 5383
5762 5758 5755 5751 5747 5743 5739 5735 5730 5725 5721 5717 5711 5706 5701 5696 5692 5686 5680 5675 5672 5667 5659 5649 5639 5640 5641 5632 5624 5619 5613 5606 5600 5594 5588 5581 5576 5571 5566 5562 5558 5553 5548 5543 5539 5534 5530 5525 5519 5514 5508 5503 5498 5492 5485 5479 5472 5467 5461 5456 5451 5445 5440 5434 5428 5422 5416 5411 5406 5401 5396 5392 5389 5386 5384 5382 5380 5378 5376 5374 5372 5371 5368 5363 5360 5360
5760 5756 5752 5748 5744 5740 5735 5731 5726 5721 5717 5712 5708 5702 5697 5692 5686 5681 5676 5669 5665 5659 5653 5646 5633 5629 5632 5627 5618 5611 5604 5598 5592 5586 5580 5574 5569 5564 5558 5554 5549 5544 5539 5534 5529 5525 5521 5516 5510 5504 5498 5492 5486 5480 5473 5466 5459 5454 5449 5444 5438 5432 5427 5421 5415 5409 5402 5396 5391 5386 5381 5377 5373 5369 5368 5366 5362 5359 5357 5355 5353 5351 5348 5345 5342 5341
5757 5754 5750 5746 5741 5737 5732 5727 5723 5717 5713 5708 5703 5698 5693 5688 5682 5676 5671 5665 5660 5654 5649 5643 5632 5622 5622 5619 5613 5606 5597 5590 5585 5578 5572 5567 5561 5556 5551 5546 5540 5535 5530 5525 5521 5518 5512 5507 5500 5495 5488 5481 5474 5468 5462 5455 5449 5443 5437 5432 5426 5420 5414 5408 5402 5395 5388 5382 5376 5371 5367 5363 5359 5354 5350 5347 5343 5340 5338 5335 5334 5332 5329 5328 5326 5325
5755 5751 5747 5743 5738 5733 5729 5724 5719 5714 5709 5704 5699 5694 5688 5683 5678 5672 5666 5661 5655 5649 5644 5638 5629 5619 5615 5611 5605 5599 5592 5584 5577 5571 5565 5559 5554 5549 5543 5537 5532 5527 5522 5518 5514 5509 5504 5498 5491 5484 5477 5470 5463 5456 5450 5444 5438 5431 5425 5419 5413 5407 5401 5394 5388 5381 5374 5368 5362 5357 5351 5346 5342 5337 5333 5329 5326 5324 5320 5317 5317 5315 5313 5312 5310 5310
5752 5749 5744 5741 5736 5731 5726 5720 5715 5710 5705 5700 5695 5690 5685 5679 5673 5667 5661 5657 5651 5644 5638 5632 5625 5615 5611 5609 5600 5591 5586 5579 5571 5565 5558 5553 5547 5542 5535 5529 5524 5520 5515 5510 5506 5500 5494 5488 5480 5473 5467 5459 5452 5445 5439 5432 5425 5419 5413 5406 5400 5394 5387 5379 5372 5364 5357 5352 5345 5340 5334 5328 5324 5320 5316 5313 5311 5309 5306 5302 5301 5299 5299 5298 5297 5296
5749 5746 5742 5738 5734 5729 5725 5719 5713 5707 5701 5696 5690 5686 5683 5679 5673 5666 5659 5653 5648 5643 5635 5627 5621 5610 5602 5602 5596 5586 5581 5574 5566 5559 5552 5546 5540 5534 5527 5522 5516 5511 5506 5501 5496 5490 5484 5477 5470 5463 5456 5448 5441 5435 5428 5420 5413 5406 5399 5392 5386 5379 5372 5363 5355 5346 5339 5333 5328 5323 5318 5313 5308 5305 5301 5298 5297 5296 5292 5289 5288 5286 5285 5285 5284 5284
5748 5744 5740 5736 5732 5727 5723 5718 5711 5705 5698 5692 5685 5679 5675 5673 5670 5665 5658 5650 5642 5637 5630 5622 5617 5606 5596 5592 5587 5580 5575 5568 5561 5553 5546 5539 5532 5525 5519 5513 5508 5502 5497 5492 5486 5481 5474 5468 5461 5453 5446 5438 5431 5424 5417 5409 5401 5393 5386 5378 5371 5364 5356 5347 5339 5332 5325 5319 5314 5309 5304 5299 5295 5291 5288 5285 5284 5283 5280 5278 5276 5274 5274 5274 5274 5274
5748 5744 5739 5734 5730 5725 5720 5716 5711 5704 5697 5689 5682 5674 5666 5661 5657 5654 5649 5642 5635 5630 5623 5616 5610 5602 5593 5585 5577 5571 5566 5559 5553 5546 5538 5531 5524 5517 5511 5506 5501 5495 5490 5484 5478 5472 5465 5458 5451 5443 5435 5427 5420 5412 5405 5397 5389 5380 5373 5365 5356 5348 5340 5332 5325 5319 5313 5307 5302 5297 5292 5288 5284 5280 5276 5273 5272 5271 5269 5267 5266 5265 5265 5265 5265 5266
5749 5743 5738 5732 5727 5722 5716 5710 5705 5700 5693 5685 5677 5668 5658 5650 5643 5638 5635 5630 5624 5622 5617 5609 5600 5592 5587 5580 5571 5564 5557 5550 5544 5537 5530 5523 5516 5509 5504 5499 5494 5488 5482 5475 5469 5461 5454 5446 5438 5431 5423 5415 5407 5399 5392 5384 5376 5367 5360 5352 5343 5334 5326 5319 5313 5307 5301 5296 5292 5287 5282 5277 5273 5269 5266 5264 5262 5261 5259 5258 5258 5258 5258 5258 5259 5260
5746 5739 5734 5729 5722 5717 5711 5704 5697 5692 5686 5680 5672 5663 5654 5646 5637 5630 5625 5618 5610 5608 5607 5602 5591 5582 5576 5571 5564 5557 5550 5543 5537 5530 5523 5516 5510 5503 5498 5493 5486 5479 5473 5465 5458 5451 5442 5434 5426 5418 5409 5401 5392 5384 5377 5369 5362 5354 5346 5338 5330 5322 5314 5308 5302 5296 5290 5286 5281 5277 5272 5268 5264 5260 5257 5256 5254 5253 5252 5252 5252 5252 5253 5254 5255 5256
5744 5736 5729 5724 5718 5712 5707 5701 5694 5688 5681 5675 5668 5660 5652 5645 5637 5630 5625 5617 5605 5597 5597 5595 5586 5576 5568 5562 5556 5549 5541 5535 5528 5521 5515 5510 5505 5499 5492 5485 5477 5469 5462 5455 5447 5439 5431 5423 5414 5405 5396 5387 5379 5371 5363 5356 5349 5341 5333 5326 5318 5310 5303 5296 5291 5286 5280 5275 5271 5267 5262 5259 5255 5252 5249 5248 5247 5246 5246 5246 5247 5248 5249 5250 5250 5251
5743 5736 5728 5722 5716 5710 5704 5698 5690 5683 5676 5669 5663 5657 5650 5643 5634 5626 5622 5618 5607 5595 5590 5587 5579 5570 5562 5554 5548 5541 5532 5526 5519 5513 5509 5505 5499 5492 5484 5475 5466 5457 5449 5441 5432 5424 5416 5407 5399 5390 5382 5374 5366 5358 5351 5345 5337 5329 5321 5314 5307 5301 5293 5286 5280 5276 5270 5265 5261 5258 5253 5250 5247 5244 5242 5241 5241 5241 5241 5242 5243 5243 5244 5245 5245 5246
5740 5736 5729 5721 5715 5708 5702 5696 5688 5680 5672 5665 5659 5653 5647 5640 5632 5621 5611 5606 5599 5587 5581 5578 5570 5561 5555 5547 5540 5534 5525 5518 5512 5506 5502 5497 5490 5482 5473 5464 5455 5446 5436 5427 5418 5410 5402 5393 5384 5376 5368 5361 5353 5345 5338 5331 5325 5318 5310 5303 5296 5290 5283 5277 5271 5266 5262 5256 5252 5249 5246 5242 5240 5238 5236 5236 5236 5237 5237 5238 5238 5239 5239 5240 5240 5241
5737 5733 5727 5720 5712 5705 5698 5693 5687 5679 5671 5663 5656 5648 5640 5632 5625 5616 5605 5595 5586 5574 5567 5567 5562 5554 5549 5541 5532 5526 5519 5512 5506 5501 5495 5488 5480 5471 5462 5453 5444 5435 5427 5418 5409 5399 5390 5380 5371 5363 5356 5349 5342 5334 5326 5319 5312 5305 5299 5292 5286 5279 5273 5267 5261 5258 5254 5248 5244 5241 5238 5235 5233 5233 5232 5232 5233 5233 5233 5234 5234 5234 5235 5236 5236 5237
5733 5728 5723 5716 5709 5701 5695 5690 5684 5677 5669 5661 5653 5646 5638 5629 5620 5613 5605 5595 5583 5570 5559 5554 5550 5545 5540 5534 5526 5519 5511 5504 5498 5492 5486 5478 5469 5460 5450 5440 5431 5422 5413 5405 5396 5387 5378 5369 5361 5353 5345 5337 5330 5323 5315 5308 5300 5293 5287 5281 5276 5270 5264 5259 5254 5250 5246 5241 5237 5234 5231 5230 5229 5229 5229 5229 5229 5229 5230 5230 5230 5230 5231 5232 5233 5233
5731 5725 5720 5715 5708 5700 5691 5684 5678 5672 5665 5657 5649 5641 5633 5626 5619 5611 5605 5598 5585 5571 5558 5546 5538 5537 5535 5527 5518 5511 5502 5495 5489 5482 5475 5466 5456 5447 5436 5426 5416 5407 5398 5390 5382 5374 5367 5360 5352 5344 5336 5327 5319 5312 5305 5298 5290 5283 5277 5271 5266 5261 5256 5251 5247 5242 5238 5234 5231 5228 5226 5225 5225 5225 5226 5226 5226 5226 5226 5226 5226 5227 5228 5229 5230 5230
5729 5723 5717 5712 5706 5697 5688 5680 5673 5667 5659 5651 5644 5636 5628 5620 5612 5602 5596 5592 5583 5572 5561 5547 5533 5530 5529 5519 5510 5503 5494 5487 5481 5472 5464 5454 5444 5435 5425 5416 5406 5396 5387 5379 5370 5363 5356 5349 5342 5335 5327 5318 5310 5302 5294 5287 5281 5274 5268 5263 5258 5253 5247 5243 5239 5235 5231 5228 5225 5223 5222 5222 5222 5223 5223 5223 5223 5223 5223 5223 5223 5224 5225 5226 5227 5228
5728 5722 5715 5709 5703 5695 5688 5680 5673 5666 5659 5651 5642 5634 5625 5616 5607 5597 5586 5579 5575 5568 5561 5549 5533 5527 5523 5513 5505 5497 5487 5480 5474 5464 5454 5445 5436 5426 5416 5407 5398 5388 5379 5370 5362 5354 5347 5340 5332 5325 5317 5308 5300 5292 5284 5277 5271 5265 5260 5255 5249 5245 5240 5236 5233 5229 5225 5222 5221 5219 5219 5219 5219 5219 5220 5220 5220 5220 5220 5220 5221 5222 5223 5224 5225 5226
5726 5720 5714 5710 5707 5702 5695 5687 5678 5669 5659 5650 5640 5631 5622 5615 5607 5599 5588 5577 5568 5561 5553 5543 5532 5525 5518 5509 5501 5492 5483 5477 5470 5459 5448 5437 5427 5417 5407 5397 5388 5380 5371 5362 5353 5346 5338 5331 5323 5314 5306 5298 5291 5282 5274 5268 5262 5256 5251 5247 5242 5237 5233 5229 5226 5223 5220 5218 5217 5216 5216 5216 5216 5216 5217 5217 5217 5217 5218 5218 5219 5220 5221 5222 5223 5224
5721 5715 5708 5702 5698 5695 5689 5681 5673 5664 5654 5644 5635 5627 5619 5612 5605 5598 5591 5580 5568 5560 5551 5538 5526 5521 5516 5508 5499 5489 5480 5472 5463 5451 5440 5427 5415 5405 5395 5386 5378 5369 5360 5352 5343 5335 5327 5320 5311 5303 5295 5288 5281 5273 5266 5259 5253 5248 5243 5239 5235 5231 5227 5224 5221 5218 5215 5214 5214 5214 5214 5214 5213 5213 5214 5214 5214 5215 5215 5216 5217 5218 5219 5220 5221 5222
5719 5713 5704 5694 5685 5677 5670 5663 5657 5652 5647 5640 5633 5626 5617 5608 5600 5593 5585 5575 5564 5556 5549 5536 5520 5513 5511 5503 5492 5482 5470 5459 5449 5439 5428 5416 5405 5395 5385 5376 5367 5358 5349 5341 5332 5323 5315 5308 5300 5292 5285 5278 5271 5264 5257 5251 5246 5241 5236 5232 5228 5224 5221 5219 5216 5213 5212 5211 5212 5212 5211 5211 5211 5211 5211 5212 5212 5213 5213 5214 5215 5216 5217 5218 5219 5220
5718 5712 5704 5694 5685 5677 5669 5662 5655 5648 5643 5637 5631 5625 5618 5607 5596 5587 5578 5569 5559 5549 5543 5536 5518 5503 5498 5491 5479 5469 5458 5446 5435 5425 5415 5404 5395 5385 5376 5368 5359 5350 5340 5331 5321 5312 5304 5297 5290 5282 5275 5268 5261 5255 5249 5243 5238 5234 5230 5226 5222 5219 5216 5214 5211 5209 5209 5209 5209 5209 5209 5209 5209 5209 5209 5210 5210 5210 5211 5212 5213 5214 5215 5216 5217 5218
5717 5711 5705 5696 5687 5681 5673 5665 5657 5649 5641 5633 5625 5618 5613 5606 5595 5585 5575 5566 5556 5542 5532 5526 5515 5499 5488 5479 5468 5458 5447 5435 5425 5414 5404 5394 5385 5377 5369 5361 5352 5342 5332 5322 5311 5301 5292 5285 5278 5271 5264 5257 5251 5246 5241 5236 5231 5227 5223 5220 5217 5214 5211 5209 5207 5206 5206 5207 5207 5207 5207 5206 5207 5207 5207 5208 5208 5209 5209 5210 5211 5212 5213 5214 5215 5216
5715 5709 5705 5698 5689 5681 5674 5665 5657 5650 5641 5632 5623 5614 5607 5601 5593 5583 5573 5562 5551 5537 5522 5514 5507 5495 5482 5472 5461 5451 5439 5427 5417 5408 5398 5389 5379 5370 5361 5352 5342 5331 5321 5311 5301 5290 5281 5274 5267 5260 5254 5248 5242 5237 5233 5229 5225 5222 5218 5214 5212 5209 5207 5205 5204 5204 5204 5205 5205 5205 5205 5205 5205 5205 5205 5206 5207 5207 5208 5208 5209 5210 5211 5212 5213 5214
5713 5707 5702 5697 5689 5681 5674 5666 5656 5649 5641 5632 5623 5613 5604 5598 5591 5582 5571 5558 5546 5535 5523 5510 5500 5490 5479 5467 5455 5443 5432 5422 5414 5405 5394 5384 5373 5363 5353 5343 5332 5321 5310 5301 5292 5282 5273 5266 5259 5253 5246 5239 5233 5228 5225 5222 5218 5216 5213 5210 5207 5205 5203 5202 5201 5202 5203 5203 5204 5204 5204 5203 5203 5204 5204 5205 5205 5206 5206 5207 5207 5208 5209 5210 5211 5213
5711 5705 5699 5694 5689 5682 5675 5668 5657 5647 5638 5630 5623 5616 5607 5598 5589 5577 5563 5550 5537 5527 5517 5505 5493 5483 5472 5460 5447 5437 5429 5420 5410 5399 5387 5376 5364 5354 5343 5333 5322 5312 5301 5291 5282 5274 5266 5259 5253 5246 5240 5233 5227 5222 5218 5215 5213 5210 5208 5206 5204 5202 5200 5200 5200 5201 5202 5202 5202 5202 5202 5202 5202 5202 5203 5203 5204 5204 5205 5205 5206 5206 5207 5209 5210 5211
5709 5703 5697 5692 5686 5679 5672 5666 5658 5649 5640 5632 5625 5617 5604 5590 5577 5566 5555 5543 5530 5517 5506 5497 5486 5473 5461 5451 5442 5435 5425 5413 5402 5389 5376 5366 5356 5345 5334 5323 5312 5302 5292 5283 5274 5266 5259 5252 5246 5241 5234 5228 5222 5217 5214 5211 5208 5206 5204 5202 5201 5199 5198 5198 5199 5200 5201 5201 5201 5201 5201 5201 5200 5201 5201 5202 5202 5202 5203 5204 5204 5205 5206 5207 5209 5210
5707 5700 5694 5688 5683 5676 5669 5660 5652 5645 5638 5628 5614 5602 5592 5580 5568 5559 5551 5542 5530 5516 5503 5492 5480 5468 5457 5447 5436 5425 5414 5402 5390 5378 5366 5356 5347 5338 5327 5315 5304 5294 5285 5275 5267 5259 5252 5246 5241 5236 5230 5224 5218 5214 5210 5207 5204 5202 5200 5199 5198 5197 5197 5198 5199 5199 5199 5199 5200 5200 5200 5200 5199 5199 5200 5201 5201 5201 5201 5202 5203 5204 5205 5206 5207 5208
5704 5697 5690 5683 5677 5671 5664 5657 5650 5640 5627 5614 5601 5589 5579 5570 5563 5557 5549 5539 5530 5519 5505 5491 5479 5467 5456 5443 5428 5415 5405 5395 5385 5374 5363 5351 5341 5330 5320 5309 5297 5287 5278 5269 5261 5255 5248 5242 5236 5231 5227 5222 5216 5211 5208 5204 5202 5199 5197 5196 5195 5195 5196 5197 5198 5198 5198 5198 5198 5199 5198 5198 5198 5198 5199 5199 5199 5199 5200 5200 5201 5202 5204 5205 5206 5207
5702 5695 5687 5680 5672 5665 5657 5650 5641 5629 5616 5607 5599 5589 5580 5573 5567 5560 5550 5536 5522 5510 5496 5484 5475 5464 5452 5439 5426 5414 5403 5394 5384 5373 5361 5350 5338 5325 5313 5302 5292 5281 5273 5265 5257 5250 5244 5238 5232 5227 5222 5218 5213 5209 5205 5202 5200 5198 5196 5195 5194 5195 5196 5197 5198 5198 5198 5198 5197 5197 5197 5197 5197 5197 5197 5197 5198 5198 5198 5199 5200 5201 5202 5204 5205 5206
5699 5692 5685 5677 5670 5663 5655 5644 5632 5623 5618 5611 5603 5593 5584 5572 5558 5545 5536 5525 5509 5495 5487 5479 5471 5460 5447 5436 5424 5412 5401 5392 5384 5374 5361 5349 5337 5323 5309 5297 5287 5277 5269 5261 5253 5246 5239 5233 5227 5222 5217 5213 5210 5206 5203 5201 5198 5196 5195 5194 5195 5195 5196 5197 5197 5197 5197 5197 5196 5196 5196 5195 5195 5195 5195 5195 5196 5196 5197 5199 5200 5200 5201 5203 5204 5206
5696 5689 5682 5673 5665 5658 5652 5645 5638 5631 5620 5607 5597 5586 5574 5560 5546 5533 5522 5512 5504 5496 5489 5478 5465 5452 5440 5429 5418 5407 5396 5387 5380 5371 5359 5346 5333 5320 5307 5295 5283 5274 5266 5259 5252 5244 5236 5230 5225 5220 5215 5211 5208 5204 5202 5199 5197 5196 5195 5195 5195 5196 5197 5197 5197 5197 5197 5196 5195 5195 5194 5194 5193 5193 5193 5193 5193 5194 5196 5197 5199 5200 5201 5202 5204 5205
5693 5686 5679 5670 5662 5653 5646 5639 5633 5624 5612 5599 5588 5578 5568 5560 5553 5541 5526 5517 5513 5505 5491 5473 5457 5444 5432 5421 5410 5399 5389 5380 5371 5360 5349 5338 5326 5314 5303 5292 5281 5272 5263 5256 5249 5242 5235 5228 5223 5218 5214 5210 5207 5203 5201 5199 5197 5196 5196 5196 5197 5197 5198 5198 5197 5197 5196 5195 5194 5193 5193 5192 5191 5191 5190 5190 5191 5193 5194 5196 5198 5199 5201 5202 5204 5205
5691 5684 5676 5668 5659 5650 5641 5631 5621 5612 5606 5598 5587 5576 5566 5556 5547 5540 5535 5530 5519 5501 5482 5466 5452 5439 5428 5416 5404 5392 5380 5368 5358 5348 5338 5328 5318 5306 5296 5287 5278 5269 5261 5253 5246 5240 5233 5226 5221 5217 5213 5209 5206 5204 5201 5199 5198 5197 5198 5198 5199 5199 5199 5199 5198 5197 5196 5195 5194 5193 5192 5191 5190 5189 5189 5189 5190 5191 5193 5195 5197 5199 5201 5203 5204 5206
5691 5683 5676 5668 5659 5649 5640 5631 5621 5610 5601 5593 5584 5575 5565 5553 5543 5537 5530 5519 5503 5487 5474 5462 5450 5438 5427 5414 5402 5390 5376 5360 5348 5340 5333 5324 5315 5305 5294 5283 5274 5265 5258 5251 5244 5238 5232 5226 5221 5217 5213 5210 5207 5205 5202 5201 5200 5200 5200 5200 5201 5200 5200 5200 5199 5198 5197 5196 5194 5193 5192 5191 5189 5188 5188 5188 5189 5190 5192 5194 5197 5199 5201 5203 5205 5207
5689 5682 5674 5667 5660 5650 5640 5630 5622 5612 5601 5590 5580 5570 5563 5557 5549 5536 5517 5500 5489 5482 5473 5462 5451 5439 5428 5415 5401 5389 5378 5365 5353 5343 5335 5326 5316 5305 5294 5283 5274 5266 5257 5250 5243 5237 5231 5226 5221 5217 5213 5210 5208 5206 5204 5203 5203 5203 5203 5203 5203 5202 5202 5201 5200 5199 5198 5196 5195 5194 5193 5191 5190 5189 5189 5189 5189 5191 5193 5195 5198 5200 5202 5204 5206 5208
5686 5678 5671 5664 5657 5649 5640 5632 5624 5614 5603 5592 5583 5573 5563 5552 5540 5526 5513 5501 5492 5483 5474 5463 5452 5440 5428 5417 5403 5391 5381 5371 5360 5349 5339 5328 5316 5304 5293 5284 5276 5268 5260 5252 5244 5238 5232 5227 5223 5219 5215 5212 5210 5208 5207 5206 5206 5206 5206 5205 5205 5204 5203 5202 5201 5200 5198 5197 5196 5195 5194 5193 5192 5191 5191 5191 5191 5193 5195 5197 5199 5201 5204 5206 5208 5210
5682 5674 5667 5660 5653 5646 5637 5626 5615 5606 5597 5588 5579 5568 5556 5542 5531 5523 5516 5507 5496 5485 5475 5463 5450 5438 5426 5415 5404 5392 5382 5372 5362 5351 5340 5329 5317 5305 5294 5283 5275 5267 5259 5253 5246 5240 5234 5229 5225 5221 5218 5216 5213 5212 5210 5210 5209 5209 5208 5207 5207 5205 5204 5203 5202 5201 5200 5198 5197 5197 5196 5195 5194 5193 5193 5193 5194 5195 5197 5199 5201 5203 5206 5207 5209 5211
5681 5672 5663 5655 5647 5638 5629 5619 5610 5602 5594 5583 5572 5559 5548 5539 5532 5524 5516 5507 5496 5483 5471 5460 5450 5438 5426 5414 5403 5392 5381 5371 5361 5350 5339 5328 5317 5305 5294 5284 5275 5268 5261 5254 5247 5242 5236 5232 5228 5224 5222 5219 5217 5216 5214 5213 5213 5212 5211 5210 5208 5207 5206 5204 5203 5202 5201 5200 5199 5198 5198 5197 5196 5196 5196 5196 5197 5198 5199 5201 5203 5205 5207 5209 5210 5212
5679 5671 5662 5653 5643 5634 5625 5617 5607 5598 5588 5578 5569 5560 5552 5544 5535 5525 5516 5506 5495 5482 5470 5459 5448 5437 5425 5414 5403 5392 5381 5370 5360 5349 5339 5328 5317 5305 5293 5283 5275 5268 5262 5256 5250 5245 5239 5235 5232 5228 5226 5224 5221 5220 5218 5217 5215 5214 5213 5211 5210 5209 5207 5206 5204 5203 5202 5201 5200 5200 5199 5199 5198 5198 5198 5198 5199 5200 5202 5204 5206 5207 5209 5210 5212 5213
5679 5671 5663 5655 5647 5639 5630 5619 5608 5597 5588 5579 5570 5562 5553 5544 5534 5524 5514 5503 5493 5484 5474 5462 5448 5435 5424 5414 5404 5393 5382 5371 5360 5350 5340 5330 5318 5306 5295 5285 5277 5271 5264 5259 5253 5248 5244 5239 5236 5233 5230 5228 5226 5224 5222 5220 5218 5216 5215 5213 5212 5210 5209 5207 5206 5205 5203 5202 5201 5201 5201 5200 5200 5200 5200 5201 5201 5203 5205 5206 5208 5209 5210 5212 5214 5215
5680 5673 5665 5656 5648 5640 5633 5625 5617 5607 5597 5588 5579 5568 5557 5545 5534 5523 5513 5502 5493 5483 5473 5462 5450 5438 5427 5416 5405 5394 5382 5371 5361 5352 5342 5331 5320 5308 5297 5288 5281 5274 5268 5262 5257 5252 5248 5244 5240 5237 5235 5232 5230 5227 5225 5223 5221 5219 5217 5215 5213 5212 5210 5208 5207 5206 5204 5203 5203 5202 5202 5201 5201 5201 5202 5202 5203 5205 5207 5208 5210 5211 5212 5214 5215 5216
5678 5671 5664 5656 5647 5638 5631 5624 5615 5606 5596 5587 5578 5568 5558 5548 5538 5528 5517 5507 5496 5484 5472 5461 5451 5441 5430 5418 5406 5394 5383 5373 5362 5353 5342 5331 5320 5309 5300 5291 5284 5277 5271 5266 5261 5256 5252 5248 5245 5242 5239 5236 5233 5230 5228 5226 5223 5221 5219 5216 5215 5213 5211 5209 5208 5206 5205 5204 5203 5203 5203 5202 5202 5203 5203 5204 5205 5207 5208 5210 5211 5212 5214 5215 5216 5217
5677 5669 5663 5656 5649 5641 5633 5625 5618 5610 5602 5592 5582 5572 5562 5551 5541 5530 5520 5510 5501 5491 5480 5467 5455 5442 5430 5419 5408 5397 5386 5375 5363 5352 5342 5331 5322 5312 5303 5294 5286 5280 5275 5269 5264 5260 5256 5252 5248 5245 5242 5239 5236 5233 5230 5227 5225 5222 5219 5217 5215 5213 5212 5210 5208 5207 5206 5205 5204 5204 5203 5203 5203 5204 5204 5205 5207 5208 5210 5211 5213 5214 5215 5216 5217 5218
5675 5669 5662 5656 5649 5641 5632 5624 5616 5608 5599 5590 5581 5571 5561 5550 5539 5529 5520 5511 5502 5493 5483 5473 5462 5449 5435 5421 5410 5400 5389 5377 5366 5354 5342 5332 5323 5314 5305 5296 5289 5284 5278 5273 5268 5263 5259 5255 5251 5248 5244 5241 5237 5234 5231 5229 5226 5223 5220 5217 5215 5214 5212 5210 5208 5207 5206 5205 5204 5204 5204 5203 5204 5204 5205 5206 5208 5209 5211 5213 5214 5216 5216 5217 5218 5219
5674 5667 5660 5652 5645 5637 5629 5621 5613 5605 5597 5588 5579 5569 5558 5548 5539 5530 5521 5511 5501 5491 5481 5472 5461 5450 5437 5423 5410 5398 5387 5377 5366 5355 5345 5335 5326 5317 5308 5299 5292 5286 5281 5276 5271 5266 5262 5258 5254 5250 5246 5243 5239 5236 5232 5229 5226 5223 5220 5217 5215 5213 5211 5210 5208 5206 5206 5205 5204 5204 5204 5204 5204 5205 5206 5208 5209 5211 5212 5214 5215 5217 5218 5218 5219 5220